Weather in Deer Lake

Canada     49°11′21″N   57°25′36″W
temp.,
°C
wind,
m/s
gust,
m/s
humid.,
%
clouds,
%
prec.,
mm/h
press.,
hPa
HPBL,
m
7 may, fri
fri700:30+3ene51197100 1.9 1011746
03:30+2ene51197100 3.1 1011700
06:30+3ene51197100 0.3 1012772
09:30+4ene51093100 0.4 1012796
12:30+5ene4891100 0.3 1014882
15:30+5ene4793100 0.8 1015848
18:30+5ne3794100 0.4 1016933
21:30+4ne4997100 1.3 1017520
8 may, sat
sat800:30+3ne3897100 0.8 1018413
03:30+3ne3798100 1.2 1019344
06:30+2ne3898100 0.1 1019351
09:30+3ne3797100 0.1 1019354
12:30+6ene4790100 0.0 1018786
15:30+6ene5985100 0.1 10161037
18:30+5ene61287100 0.2 1013995
21:30+3ene71497100 5.8 1010882
9 may, sun
sun900:30+3ene81897100 3.6 10061154
03:30+3ene71596100 4.9 10011139
06:30+4e51197100 0.6 9981197
09:30+3e4988100 0.9 997964
12:30+4ese4892100 0.5 996866
15:30+4e4592100 1.6 994803
18:30+3n1397100 0.8 995482
21:30+3wnw1597100 1.3 996625
10 may, mon
mon1000:30+3wnw489393 0.1 998583
03:30+1w51093100 0.1 999627
06:30+1w5129298 0.1 1001818
09:30+2wnw5118587 0.1 1003772
12:30+6wnw696850 0.0 10041051
15:30+5w6107286 0.1 10051087
18:30+5w597866 0.0 1005879
21:30+2wsw389281 0.0 1006362
11 may, tue
tue1100:300wsw279792 0.0 1004211
03:30+2wsw259330 0.0 1003236
06:30+1wsw2392100 0.0 1003147
09:30+5w227397 0.0 1002774
12:30+7nw3368100 0.1 10011094
15:30+6nw3472100 0.1 1002933
18:30+6nw347477 0.1 1002798
21:30+3w248991 0.1 1004148